Location: Newark
(44.3681°N, 100.3364°W)
Time: 20:52:59
(UTC+00:00)

deb Explorer IX - Pass Details

Date: 23 February 2020
Orbit: 548 x 1100 km, 38.8° (Epoch: 09 April)

Event Time Altitude Azimuth Distance (km) Brightness Sun altitude
Rises 20:40:29 0° 267° (W) 2,714 ? 30.8°
Reaches altitude 10° 20:43:00 10° 253° (WSW) 1,811 ? 30.6°
Maximum altitude 20:46:21 24° 198° (SSW) 1,151 ? 30.2°
Drops below altitude 10° 20:49:49 10° 143° (SE) 1,871 ? 29.9°
Sets 20:52:28 0° 130° (SE) 2,826 ? 29.6°
